Mount Ida, AR

7:30 AM CDT on July 28, 2017 (GMT -0500)
Mount Ida

Weather History for KMWT - December, 2013

Change the Weather History Date:

Friday, December 20, 2013

  Actual Average (KHOT) Record (KHOT)
Temperature  
Mean Temperature 66 °F -  
Max Temperature 70 °F 53 °F 75 °F (1967)
Min Temperature 62 °F 32 °F 9 °F (1989)
Cooling Degree Days 1    
Growing Degree Days 16 (Base 50)    
Moisture  
Dew Point 63 °F    
Average Humidity 89    
Maximum Humidity 100    
Minimum Humidity 76    
Precipitation  
Precipitation 0.13 in - - ()
Sea Level Pressure  
Sea Level Pressure 29.78 in    
Wind  
Wind Speed 4 mph (South)    
Max Wind Speed 9 mph    
Max Gust Speed 20 mph    
Visibility 7 miles    
Events Fog , Rain    
Averages and records for this station are not official NWS values.
T = Trace of Precipitation, MM = Missing Value Source: NWS Daily Summary

Daily Weather History Graph

Daily Weather History Graph

Search for Another Location

Airport or City:

Trip Planner

Search our weather history database for the weather conditions in past years. The results will help you decide how hot, cold, wet, or windy it might be!

Date:

Astronomy

Dec. 20, 2013 Rise Set
Actual Time 7:16 AM CST 5:07 PM CST
Civil Twilight 6:48 AM CST 5:35 PM CST
Nautical Twilight 6:17 AM CST 6:06 PM CST
Astronomical Twilight 5:46 AM CST 6:37 PM CST
Moon 8:21 PM CST (12/20) 9:17 AM CST (12/20)
Length of Visible Light 10h 46m
Length of Day
9h 50m
Waning Gibbous, 90% of the Moon is Illuminated
Dec 20
Waning Gibbous
Dec 25
Last Quarter
Jan 1
New
Jan 7
First Quarter
Jan 15
Full

Hourly Weather History & Observations

Time (CST) Temp. Dew Point Humidity Pressure Visibility Wind Dir Wind Speed Gust Speed Precip Events Conditions
12:53 AM 63.0 °F 60.1 °F 90% 29.79 in 10.0 mi South 8.1 mph - 0.01 in   Overcast
3:53 AM 64.9 °F 60.1 °F 84% 29.78 in 10.0 mi Variable 5.8 mph - N/A   Overcast
4:53 AM 64.9 °F 60.1 °F 84% 29.78 in 10.0 mi Variable 4.6 mph 17.3 mph N/A   Overcast
5:53 AM 66.0 °F 60.1 °F 81% 29.79 in 10.0 mi Variable 5.8 mph - N/A   Overcast
6:53 AM 64.9 °F 61.0 °F 87% 29.81 in 10.0 mi Variable 4.6 mph - N/A   Overcast
7:53 AM 66.0 °F 61.0 °F 84% 29.84 in 10.0 mi North - - N/A   Overcast
8:48 AM 66.2 °F 62.6 °F 88% 29.86 in 10.0 mi North - - N/A   Mostly Cloudy
8:53 AM 66.0 °F 61.0 °F 84% 29.84 in 10.0 mi Variable 5.8 mph - N/A   Mostly Cloudy
9:29 AM 66.9 °F 62.1 °F 84% 29.87 in 10.0 mi Variable 5.8 mph - N/A   Mostly Cloudy
9:53 AM 68.0 °F 62.1 °F 81% 29.86 in 10.0 mi Calm Calm - N/A   Overcast
10:53 AM 68.0 °F 62.1 °F 81% 29.84 in 10.0 mi Variable 5.8 mph - N/A   Overcast
11:53 AM 69.1 °F 62.1 °F 78% 29.82 in 10.0 mi Variable 3.5 mph - 0.00 in   Overcast
12:14 PM 69.1 °F 62.1 °F 78% 29.83 in 10.0 mi Variable 3.5 mph - N/A   Overcast
12:53 PM 70.0 °F 62.1 °F 76% 29.78 in 10.0 mi Variable 6.9 mph - N/A   Mostly Cloudy
1:01 PM 70.0 °F 62.1 °F 76% 29.81 in 10.0 mi SW 9.2 mph - N/A   Mostly Cloudy
1:53 PM 69.1 °F 62.1 °F 78% 29.79 in 9.0 mi Variable 6.9 mph - 0.00 in Rain Light Rain
2:49 PM 69.8 °F 62.6 °F 78% 29.80 in 10.0 mi Variable 3.5 mph - 0.00 in   Overcast
2:53 PM 70.0 °F 63.0 °F 78% 29.78 in 10.0 mi Calm Calm - 0.00 in   Overcast
3:53 PM 68.0 °F 63.0 °F 84% 29.78 in 9.0 mi Variable 3.5 mph - 0.01 in Rain Light Rain
4:53 PM 66.0 °F 63.0 °F 90% 29.79 in 8.0 mi Calm Calm - 0.01 in   Mostly Cloudy
5:22 PM 64.9 °F 63.0 °F 93% 29.80 in 8.0 mi Calm Calm - N/A   Overcast
5:38 PM 64.9 °F 63.0 °F 93% 29.79 in 7.0 mi Calm Calm - N/A   Overcast
5:53 PM 64.0 °F 62.1 °F 93% 29.77 in 7.0 mi Calm Calm - N/A   Overcast
6:24 PM 64.0 °F 63.0 °F 96% 29.78 in 5.0 mi Calm Calm - 0.00 in Rain Light Rain
6:53 PM 64.0 °F 63.0 °F 96% 29.77 in 5.0 mi Calm Calm - 0.01 in Rain Light Rain
7:08 PM 64.0 °F 64.0 °F 100% 29.78 in 2.5 mi Calm Calm - 0.01 in Rain Heavy Rain
7:24 PM 64.0 °F 63.0 °F 96% 29.77 in 1.5 mi Calm Calm - 0.06 in Rain Light Rain
7:38 PM 64.0 °F 63.0 °F 96% 29.77 in 0.5 mi Calm Calm - 0.06 in Fog Fog
7:53 PM 64.0 °F 63.0 °F 96% 29.75 in 0.5 mi Calm Calm - 0.06 in Fog Fog
8:42 PM 63.0 °F 63.0 °F 100% 29.75 in 0.5 mi Calm Calm - 0.00 in Fog Fog
8:53 PM 64.0 °F 63.0 °F 96% 29.73 in 1.0 mi Calm Calm - 0.00 in   Overcast
9:00 PM 63.0 °F 63.0 °F 100% 29.74 in 0.8 mi Calm Calm - N/A   Overcast
9:37 PM 62.1 °F 61.0 °F 96% 29.72 in 1.0 mi Calm Calm - 0.02 in Rain Light Rain
9:44 PM 62.1 °F 62.1 °F 100% 29.71 in 1.0 mi SE 3.5 mph - 0.02 in Rain Light Rain
9:53 PM 63.0 °F 62.1 °F 97% 29.69 in 2.5 mi Calm Calm - 0.02 in Rain Light Rain
10:00 PM 64.9 °F 64.0 °F 97% 29.71 in 5.0 mi Variable 4.6 mph - 0.00 in Rain Light Rain
10:53 PM 69.1 °F 66.0 °F 90% 29.68 in 10.0 mi SSW 9.2 mph - 0.01 in   Overcast
11:31 PM 70.0 °F 66.0 °F 87% 29.68 in 10.0 mi North - - N/A   Overcast
11:53 PM 70.0 °F 66.0 °F 87% 29.65 in 10.0 mi Variable 5.8 mph 19.6 mph N/A   Overcast